User: anonymous   Login
Location: Little Chesterford
(52.0500°N, 0.1833°E)
Time: 03:01:47
(UTC+00:00)
Language:

Cosmos 1459 Rocket - Orbit

View from above orbital plane
View from above orbital plane
View from above satellite
View from above satellite

Ground track
Ground track

The orbit data is extracted from the following two-line orbital elements,

1 14059U 83042B   24062.45941050  .00000019  00000-0  35793-5 0  9990
2 14059  82.9709  42.8517 0041481 222.3639 137.4315 13.78912103 53128
Epoch (UTC): 02 March 2024 11:01:33
Eccentricity: 0.0041481
inclination: 82.9709°
perigee height: 937 km
apogee height: 998 km
right ascension of ascending node: 42.8517°
argument of perigee: 222.3639°
revolutions per day: 13.78912103
mean anomaly at epoch: 137.4315°
orbit number at epoch: 5312

The dashed part of the orbit path shows where the satellite is in the earth's shadow,  

DLR